TIROS 8 DEB, 19396

Orbit data source: Space-Track

TIROS 8 DEB, 19396 is space debris in LEO originally from a launch on Sat, 21 Dec 1963 UTC launched from the Air Force Western Test Range (AFWTR). Debris objects in space refer to the collection of defunct objects orbiting the Earth. Examples of debris include non-operational satellites, rocket bodies, and fragments generated from explosions, collisions, or faulty payload assembly.

Loading next visibility...
Identifier
19396, 1963-054E
Orbit
LEO
Last TLE update
18 hours ago
Origin
Manufacturer
Unknown
Mission
Spacecraft
Bus & Motor
Unknown
Mass
Unknown
Launch date (UTC)
1963-12-21 (61 years ago)
Launch vehicle
Unknown
Launch site
Air Force Western Test Range (AFWTR)
Object type
Payload
Rocket body
Debris
Shape & HBR
Unknown
Radar Cross Section
Small (<0.1 m²)

Expand to show TLE details & history

TLE from 18 hours ago
0 TIROS 8 DEB
1 19396U 63054E   25128.55045481  .00006916  00000-0  45052-3 0  9997
2 19396  58.4675  66.2855 0013190 190.4993 169.5789 15.08885037973353
Epoch: 2025-05-08T13:12Z
Definitive object data (Epoch: 2025-05-08T13:12:39.295Z)
Latitude
-0.00008°
Longitude
1.50238°
Altitude
550.019 km
Speed
7.583 km/s
True Right ascension
04h 25m 08s
True Declination
0° 00' 00"
Sunlit
Object was in daylight at TLE epoch
Visualization TLE readout
Latitude
55.55325°
Longitude
61.41987°
Altitude
551.275 km
Speed
7.59 km/s
Apparent Right ascension
05h 27m 22s
Apparent Declination
13° 16' 47"
Sunlit
Object is in daylight
Visualization observer readout
Local Sidereal Time
15:10:59
Azimuth
321.8° NNW
Elevation
-28.084°
Doppler factor
1
Orbital elements
Apogee altitude
548.162 km
Perigee altitude
529.915 km
Semi-major axis
6,917.176 km
Eccentricity
0.001319
Inclination
58.4675°
RAAN
66.2855°
Arg. of periapsis
190.4993°
True anomaly
169.6062°
Mean anomaly
169.5789°
Eccentric anomaly
169.59255°
Mean motion
3.77268 °/min
BSTAR
0.00045052
Orbital period
95.42 mins
Loading maneuver chart data...
Loading SW <> Apogee altitude chart data...
Loading historical data...
Loading historical data...
Loading historical data...
Loading historical data...
Loading historical data...
Loading historical data...
Loading historical data...
Other satellites on launch #54 in the year 1963 (1963-12-21 UTC)

TIROS 8 DEB Visibility forecast

Observer location: undefined°, undefined°

Span
Click to sort rows by Start time (UTC) header in descending order
Start Az.
Max El. time (UTC)
Max El. Az.
Max El.
End time (UTC)
End Az.
4 mins2025-05-09 07:17:03.495Z274.866° WNW2025-05-09 07:19:03.495Z243.95° WSW14.482°2025-05-09 07:21:03.495Z211.601° SW
6 mins2025-05-09 21:10:03.495Z177.086° S2025-05-09 21:12:03.495Z136.013° SSE27.97°2025-05-09 21:16:03.495Z59.992° ENE
5 mins2025-05-09 22:49:03.495Z272.426° WNW2025-05-09 22:51:03.495Z314.795° NW25.87°2025-05-09 22:54:03.495Z15.721° NNE
6 mins2025-05-10 05:30:03.495Z327.109° NNW2025-05-10 05:32:03.495Z13.356° NNE42.848°2025-05-10 05:36:03.495Z132.025° SE
|